AirNav   Everest Fuels
 
 1115 users online  

16VA Echols Field Airport
Mount Solon, Virginia, USA

GOING TO MOUNT SOLON?


FAA INFORMATION EFFECTIVE 21 MAY 2020

Location

FAA Identifier: 16VA
Lat/Long: 38-20-04.0000N 079-09-38.0000W
38-20.066667N 079-09.633333W
38.3344444,-79.1605556
(estimated)
Elevation: 1782 ft. / 543 m (estimated)
From city: 4 miles W of MOUNT SOLON, VA
Time zone: UTC -4 (UTC -5 during Standard Time)
Zip code: 22843

Airport Operations

Airport use: Private use. Permission required prior to landing
Activation date: 08/2019
Control tower: no
ARTCC: WASHINGTON CENTER
FSS: LEESBURG FLIGHT SERVICE STATION
Attendance: 
Wind indicator: yes
Segmented circle: no

Airport Communications

WX AWOS-3 at VBW (10 nm E): 119.55 (540-828-2076)
WX AWOS-3 at SHD (13 nm E): 124.925 (540-234-0110)
WX AWOS-3PT at W13 (19 nm SE): 118.625 (540-941-7570)

Nearby radio navigation aids

VOR radial/distance  VOR name  Freq  Var
MOLr359/26.2MONTEBELLO VOR/DME115.3005W

 
NDB name  Hdg/Dist  Freq  Var  ID
STAUT319/12.537509WSH ... ....
CAVERNS245/39.024509WLUA .-.. ..- .-

Airport Services

Runway Information

Runway 5/23

Dimensions: 1650 x 50 ft. / 503 x 15 m
Surface: turf/dirt, in fair condition
RUNWAY 5  RUNWAY 23
Traffic pattern: leftleft

Airport Ownership and Management from official FAA records

Ownership: Privately-owned
Owner: YELLOW JACKET HOLLOW
505 PATLEIGH RD
CATONSVILLE, MD 21228
Phone 443-629-2630
Manager: JEREMY WIMPEY
1165 LOTTS RD
STEELES TAVERN, VA 24476
Phone 443 629 2630

Airport Operational Statistics

Aircraft based on the field: 1
Single engine airplanes: 1
    

Instrument Procedures

There are no published instrument procedures at 16VA.

Some nearby airports with instrument procedures:

KVBW - Bridgewater Air Park (10 nm E)
KSHD - Shenandoah Valley Regional Airport (13 nm E)
W13 - Eagle's Nest Airport (19 nm SE)
8W2 - New Market Airport (29 nm NE)
KCHO - Charlottesville-Albemarle Airport (35 nm E)
 
Loc | Ops | Rwys | IFR | FBO | Links
Com | Nav | Svcs | Stats | Notes
Aerial photo
No photo
 
Airport distance calculator
Flying to Echols Field Airport? Find the distance to fly.

From to 16VA

Sunrise and sunset
Times for 01-Jun-2020
 Local
(UTC-4)
 Zulu
(UTC)
Morning civil twilight05:2409:24
Sunrise05:5509:55
Sunset20:3400:34
Evening civil twilight21:0501:05

Current date and time
Zulu (UTC)  01-Jun-2020 22:44:02
Local (UTC-4)  01-Jun-2020 18:44:02
 
METAR
KVBW 
10nm E 
012215Z AUTO 16008KT 10SM CLR 22/06 A3016 RMK AO1 T02230058
KSHD 
13nm E 
012215Z AUTO 15006KT 10SM CLR 22/06 A3019 RMK AO2 T02170057
KW13 
19nm SE 
012215Z AUTO 19005KT 10SM CLR 21/06 A3019 RMK AO1 T02100064
TAF
KCHO 
36nm E 
011726Z 0118/0218 21005KT P6SM FEW250 FM020000 VRB03KT P6SM FEW200 FM021500 19007KT P6SM BKN080
NOTAMs
Click for the latest NOTAMs
NOTAMs are issued by the DoD/FAA and will open in a separate window not controlled by AirNav.

 

 
 

Would you like to see your business listed on this page?

 If your business provides an interesting product or service to pilots, flight crews, aircraft, or users of the Echols Field Airport, you should consider listing it here.  To start the listing process, click on the button below
 
Add a business
 

Other Pages about Echols Field Airport

Update a link
 
Copyright © AirNav, LLC. All rights reserved. Privacy Policy  Contact